Meteo Giornale » Osservazioni meteo Finlandia » Seinajoki-Ilmajok
ore: 21:50 - Osservazioni Meteo Seinajoki-Ilmajok
Lat. 62° 41' N Lon. 22° 49' E Alt. 91 metri s.l.m.
17 °C
Coperto
Temp. 24 Ore
12 °C
20 °C
Nord
5.5 Km/h
Dew point 16 °C
Umidità 93 %
Visibilità 10 Km
Il sole sorge alle ore 06:13
Il sole tramonta alle ore 20:44
| Data e Ora | Cielo e Fenomeni | T °C | DP °C | Um. % | Pres. hPa | Vis. km | Vento km/h | |
|---|---|---|---|---|---|---|---|---|
| Oggi h: 21:50 | Coperto | 17 | 16 | 93 | 1004 | 10 | N 5.5 | |
| Oggi h: 21:20 | Pioggia | 16 | 16 | 100 | 1003 | 1 | N 3.7 | |
| Oggi h: 20:50 | Nebbia | 17 | 17 | 100 | 1003 | 0.7 | N 3.7 | |
| Oggi h: 20:20 | Sereno | 17 | 17 | 100 | 1003 | 10 | N 5.5 | |
| Oggi h: 19:50 | Nuvoloso | 17 | 16 | 93 | 1003 | 10 | SE 7.4 | |
| Oggi h: 19:20 | Poco Nuvoloso | 18 | 17 | 93 | 1003 | 10 | SE 7.4 | |
| Oggi h: 18:50 | Nuvoloso | 19 | 17 | 88 | 1003 | 10 | N 5.5 | |
| Oggi h: 18:20 | Nuvoloso | 18 | 16 | 88 | 1003 | 10 | S/SE 7.4 | |
| Oggi h: 17:50 | Sereno | 18 | 17 | 93 | 1003 | 10 | S/SE 7.4 | |
| Oggi h: 17:20 | Pioggia | 18 | 17 | 93 | 1003 | 10 | N 1.8 | |
| Oggi h: 16:50 | Pioggia | 17 | 16 | 93 | 1003 | 10 | N 3.7 | |
| Oggi h: 16:20 | Pioggia | 16 | 16 | 100 | 1003 | 10 | N 5.5 | |
| Oggi h: 15:50 | Molto Nuvoloso | 18 | 16 | 88 | 1003 | 10 | S/SO 7.4 | |
| Oggi h: 15:20 | Nuvoloso | 20 | 17 | 82 | 1003 | 10 | S/SE 11.1 | |
| Oggi h: 14:50 | Molto Nuvoloso | 20 | 16 | 77 | 1002 | 10 | S 11.1 | |
| Oggi h: 14:20 | Molto Nuvoloso | 19 | 16 | 82 | 1003 | 10 | S/SE 11.1 | |
| Oggi h: 13:50 | Coperto | 18 | 16 | 88 | 1003 | 10 | S 13 | |
| Oggi h: 13:20 | Molto Nuvoloso | 18 | 16 | 88 | 1003 | 10 | S/SE 11.1 | |
| Oggi h: 12:50 | Coperto | 18 | 16 | 88 | 1003 | 10 | S/SE 13 | |
| Oggi h: 12:20 | Coperto | 17 | 16 | 93 | 1003 | 10 | S/SE 11.1 | |
| Oggi h: 11:50 | Pioggia | 17 | 16 | 93 | 1003 | 10 | SE 11.1 | |
| Oggi h: 11:20 | Pioggia | 16 | 16 | 100 | 1003 | 8 | S/SE 11.1 | |
| Oggi h: 10:50 | Coperto | 16 | 16 | 100 | 1003 | 10 | S/SE 13 | |
| Oggi h: 10:20 | Coperto | 16 | 16 | 100 | 1003 | 10 | SE 11.1 | |
| Oggi h: 09:50 | Pioggia | 16 | 15 | 93 | 1003 | 6 | SE 11.1 | |
| Oggi h: 09:20 | Pioggia | 15 | 15 | 100 | 1003 | 6 | E/SE 11.1 | |
| Oggi h: 08:50 | Pioggia | 15 | 15 | 100 | 1003 | 3 | E/SE 9.3 | |
| Oggi h: 08:20 | Pioggia | 15 | 14 | 93 | 1003 | 10 | E/SE 7.4 | |
| Oggi h: 07:50 | Pioggia | 15 | 14 | 93 | 1003 | 4 | E/SE 9.3 | |
| Oggi h: 07:20 | Pioggia | 14 | 14 | 100 | 1004 | 10 | E/SE 7.4 | |
| Oggi h: 06:50 | Coperto | 14 | 14 | 100 | 1004 | 10 | N 5.5 | |
| Oggi h: 06:20 | Pioggia | 14 | 14 | 100 | 1004 | 6 | E/SE 7.4 | |
| Oggi h: 05:50 | Pioggia | 14 | 14 | 100 | 1004 | 7 | E/SE 7.4 | |
| Oggi h: 05:20 | Pioggia | 14 | 13 | 93 | 1004 | 7 | E/SE 7.4 | |
| Oggi h: 04:50 | Pioggia | 13 | 13 | 100 | 1004 | 8 | SE 7.4 | |
| Oggi h: 04:20 | Pioggia | 13 | 13 | 100 | 1004 | 7 | SE 7.4 | |
| Oggi h: 03:50 | Poco Nuvoloso | 12 | 12 | 100 | 1005 | 5 | SE 11.1 | |
| Oggi h: 03:20 | Nuvoloso | 12 | 12 | 100 | 1005 | 6 | SE 11.1 | |
| Oggi h: 02:50 | Banco di nebbia | 12 | 12 | 100 | 1005 | 3 | SE 11.1 | |
| Oggi h: 02:20 | Foschia | 12 | 12 | 100 | 1005 | 1 | S/SE 9.3 | |
| Oggi h: 01:50 | Sereno | 13 | 13 | 100 | 1005 | 10 | S/SE 7.4 | |
| Oggi h: 01:20 | Sereno | 14 | 13 | 93 | 1005 | 10 | S/SE 9.3 | |
| Oggi h: 00:50 | Sereno | 14 | 13 | 93 | 1005 | 10 | S 7.4 | |
| Oggi h: 00:20 | Sereno | 15 | 14 | 93 | 1005 | 10 | S/SE 11.1 | |
| Ieri h: 23:50 | Sereno | 14 | 14 | 100 | 1005 | 10 | SE 9.3 | |
| Ieri h: 23:20 | Sereno | 14 | 13 | 93 | 1005 | 10 | S/SE 9.3 | |
| Ieri h: 22:50 | Sereno | 14 | 13 | 93 | 1005 | 10 | S/SE 9.3 | |



